Regional Weather Roundup
Issued by NWS

Home | Current Version | Previous Version | Graphics & Text | Print | Product List | Glossary On
Versions: 1 2 3 4 5 6 7 8 9 10 11 12 13 14 15 16 17 18 19 20 21 22 23 24 25 26 27 28 29 30 31 32 33 34 35 36 37 38 39 40 41 42 43 44 45 46 47 48 49 50
920
ASUS45 KTFX 291210
RWRMT
MONTANA REGIONAL WEATHER ROUNDUP
NATIONAL WEATHER SERVICE GREAT FALLS MT
600 AM MDT FRI APR 29 2016

NOTE: "FAIR" INDICATES FEW OR NO CLOUDS BELOW 12000 FEET WITH NO
SIGNIFICANT WEATHER AND/OR OBSTRUCTIONS TO VISIBILITY.

MTZ001>007-043-291300-
WEST OF THE DIVIDE

CITY           SKY/WX    TMP DP  RH WIND       PRES   REMARKS
KALISPELL      CLOUDY    41  37  86 SE3       29.93F
MISSOULA       CLOUDY    36  32  85 CALM      29.96F
BUTTE          CLOUDY    31  27  85 CALM      29.93S
MULLAN PASS    MOCLDY    30  24  78 SE3       29.90F
ANACONDA         N/A     28  27  93 W3        29.94S
DEER LODGE       N/A     30  28  93 CALM      29.96S
EUREKA           N/A     36  32  87 CALM      29.96F
HAMILTON         N/A     37  36  93 CALM      29.93F
LIBBY            N/A     34  30  86 CALM      29.97S
PLAINS           N/A     39  34  82 CALM      29.96F
$$

MTZ008-052>055-291300-
SOUTHWEST MONTANA

CITY           SKY/WX    TMP DP  RH WIND       PRES   REMARKS
BOZEMAN        CLOUDY    32  26  78 CALM      29.96F
DILLON         CLOUDY    33  25  72 NE10      29.91F WCI  25
ENNIS          CLOUDY    32  30  93 CALM      29.98S
TWIN BRIDGES     N/A     35  24  64 N9        29.92F WCI  28
$$

MTZ009-010-012-014-046-048-049-054-291300-
EAST SLOPES AND CENTRAL MONTANA

CITY           SKY/WX    TMP DP  RH WIND       PRES   REMARKS
CUT BANK       CLOUDY    35  34  96 E6        29.99F WCI  30
GREAT FALLS    CLOUDY    35  33  92 CALM      29.98F
HELENA         CLOUDY    37  31  78 W3        29.96F
CHOTEAU          N/A     36  36 100 NE5       29.99S FOG
CONRAD           N/A     36  36 100 CALM      30.01F
$$

MTZ011-013-016-021-045-047-050-051-291300-
NORTH CENTRAL MONTANA

CITY           SKY/WX    TMP DP  RH WIND       PRES   REMARKS
HAVRE          CLOUDY    41  35  79 E14       30.04S
LEWISTOWN      CLOUDY    36  30  79 CALM      30.01F
N BAR RANCH    FOG       30  30 100 E6        30.04S VSB<1/4 WCI  24
CHINOOK          N/A     41  37  87 SE5       30.07S
$$

MTZ017>020-022>027-061-062-291300-
NORTHEAST MONTANA

CITY           SKY/WX    TMP DP  RH WIND       PRES   REMARKS
GLASGOW        CLOUDY    38  34  85 NE9       30.11S WCI  31
JORDAN           N/A     38  35  89 E7        30.08F
SIDNEY         CLOUDY    37  27  65 N7        30.15S
WOLF POINT     CLOUDY    40  34  79 NE6       30.14F
PLENTYWOOD       N/A     37  21  52 E7        30.16S
POPLAR           N/A     39  30  70 NE6       30.15S
SCOBEY           N/A     37  17  44 E2        30.11F
$$

MTZ028>42-056>058-291300-
SOUTHCENTRAL AND SOUTHEAST MONTANA

CITY           SKY/WX    TMP DP  RH WIND       PRES   REMARKS
BAKER          CLOUDY    38  34  85 CALM      30.12S
BILLINGS       CLOUDY    35  34  96 NE3       30.02S
LIVINGSTON     CLOUDY    34  29  82 E12       29.97F WCI  25
MILES CITY     CLOUDY    40  34  79 E6        30.09S
EKALAKA          N/A     36  31  82 SE7       30.05F WCI  30
FORSYTH          N/A     37  37 100 E6        30.08S
LAUREL           N/A     35  28  76 CALM      29.99F
ROUNDUP          N/A     32  29  89 CALM      29.95S
$$

REGIONAL REPORTS...DAKOTAS

CITY           SKY/WX    TMP DP  RH WIND       PRES   REMARKS
WILLISTON      PTCLDY    34  24  67 NE5       30.18R
MINOT          PTCLDY    34  21  59 N5        30.20S
DICKINSON      CLOUDY    35  27  72 NE7       30.12S WCI  29
BEACH          CLOUDY    37  37 100 NE3       30.15S
CROSBY           N/A     32  23  69 CALM      30.22S
TIOGA            N/A     28  23  80 CALM      30.24R
WATFORD CITY     N/A     28  25  86 N6        30.17S WCI  22
BISMARCK       CLOUDY    35  31  85 NE7       30.18R WCI  29
GRAND FORKS    MOCLDY    34  29  82 N6        30.21R WCI  29
FARGO          CLOUDY    36  32  85 E5        30.16R
BUFFALO SD       N/A     37  34  89 E3        30.04S
RAPID CITY     CLOUDY    36  34  92 CALM      30.11S
$$

REGIONAL REPORTS...WYOMING/IDAHO/WASHINGTON

CITY           SKY/WX    TMP DP  RH WIND       PRES   REMARKS
GILLETTE       CLOUDY    35  33  92 CALM      30.04S
SHERIDAN       CLOUDY    36  32  85 SE3       30.01F
BUFFALO WY       N/A    N/A N/A N/A MISG      30.03S
CODY           CLOUDY    34  30  86 CALM      29.97F
YELLOWSTONE LA   N/A     23  19  85 CALM      29.92F
IDAHO FALLS    CLOUDY    39  29  67 CALM      29.89S
SALMON         CLOUDY    37  34  87 CALM      29.91F
BOISE          CLOUDY    49  39  68 W8        29.90S
SPOKANE        CLOUDY    48  40  73 S6        29.94F
$$

REGIONAL REPORTS...ALBERTA

CITY           SKY/WX    TMP DP  RH WIND       PRES   REMARKS
EDMONTON       CLEAR     46  30  53 SE15      29.93F
CALGARY        PTCLDY    36  28  75 S12       29.93F WCI  27
LETHBRIDGE     MOCLDY    27  27 100 S7        29.99F WCI  19
MEDICINE HAT   CLOUDY    41  36  81 CALM      30.04F
WATERTON GATE    N/A     28  27  93 CALM        N/A
CARDSTON         N/A     32  30  93 SE2         N/A
MILK RIVER       N/A     34  34 100 S1          N/A
ONEFOUR          N/A     39  36  87 NE12        N/A  WCI  32
$$

REGIONAL REPORTS...SASKATCHEWAN

CITY           SKY/WX    TMP DP  RH WIND       PRES   REMARKS
SWIFT CURRENT  PTCLDY    32  25  74 SE8       30.10F WCI  25
REGINA         PTCLDY    34  14  44 SE13      30.20S WCI  25
SASKATOON      PTCLDY    37  27  65 SE10      30.17S WCI  30
CYPRESS HILLS    N/A     34  30  86 SE5         N/A
VAL MARIE        N/A     28  27  93 NE7         N/A  WCI  21
ROCKGLEN         N/A     36  21  55 SE9         N/A  WCI  29
$$




USA.gov is the U.S. government's official web portal to all federal, state and local government web resources and services.